Regional Weather Roundup
Issued by NWS Charleston, SC

Current Version | Previous Version | Graphics & Text | Print | Product List | Glossary On
Versions: 1 2 3 4 5 6 7 8 9 10 11 12 13 14 15 16 17 18 19 20 21 22 23 24 25 26 27 28 29 30 31 32 33 34 35 36 37 38 39 40 41 42 43 44 45 46 47 48 49 50
000
ASUS42 KCHS 122012
RWRCHS

REGIONAL WEATHER ROUNDUP
NATIONAL WEATHER SERVICE CHARLESTON SC
300 PM EST TUE DEC 12 2017

NOTE: "FAIR" INDICATES FEW OR NO CLOUDS BELOW 12,000 FEET WITH NO
SIGNIFICANT WEATHER AND/OR OBSTRUCTIONS TO VISIBILITY.

NOT ALL STATIONS ARE QUALITY CONTROLLED. USE DATA WITH CAUTION...
ESPECIALLY DEWPOINT OBSERVATIONS.

SCZ027-030-031-034>040-042>050-122100-
...SOUTHEAST SOUTH CAROLINA...

CITY           SKY/WX    TMP DP  RH WIND       PRES   REMARKS
N CHARLESTON   MOSUNNY   61  36  39 W20G32    29.69R
WATERFRONT PRK   N/A     61  42  49 W13       29.53F
JOHNS ISLAND   FAIR      63  41  45 W15G22    29.69S
PINOPOLIS        N/A     57  43  58 W15       29.59F
MONCKS CORNER  NOT AVBL
SUMMERVILLE    FAIR      61  36  39 W16G24    29.71R
BEAUFORT MCAS  SUNNY     62  38  40 W21G29    29.74R
BEAUFORT ARPT  FAIR      61  37  41 W23G29    29.73R
HILTON HEAD IS MOSUNNY   63  39  42 W13G22    29.75R
WALTERBORO     PTCLDY    59  36  41 W17G33    29.72S
ALLENDALE      FAIR      59  32  36 W9G21     29.75R

...SOUTHERN MIDLANDS AND PEE DEE...

CITY           SKY/WX    TMP DP  RH WIND       PRES   REMARKS
GEORGETOWN     FAIR      59  37  44 W16G25    29.67R
KINGSTREE      MOCLDY    57  34  41 W18       29.67R
ORANGEBURG     MOSUNNY   59  32  36 W15G25    29.72R
BARNWELL         N/A     61  34  36 W16G26    29.75R
AIKEN          FAIR      55  32  41 W20G29    29.79R
MANNING        FAIR      59  34  38 MISG      29.69R
COLUMBIA       MOSUNNY   60  33  36 NW16G25   29.71S
SUMTER         MOSUNNY   57  33  40 NW18G24   29.68R
FLORENCE       MOSUNNY   58  33  39 NW20G26   29.67R
MYRTLE BEACH   MOSUNNY   61  39  44 W17G24    29.65R
N MYRTLE BEACH PTSUNNY   60  39  45 W10       29.62S

$$

GAZ063-065-086>088-099>101-113>116-118-119-134>141-150-122100-
...SOUTHEAST GEORGIA...

CITY           SKY/WX    TMP DP  RH WIND       PRES   REMARKS
SAVANNAH ARPT  MOSUNNY   63  36  36 W22G36    29.77R
HUNTER AAF     SUNNY     62  37  38 W23G37    29.74R
FORT STEWART   SUNNY     62  35  37 W17G29    29.78R
STATESBORO     SUNNY     61  26  26 W16G29    29.79S
SYLVANIA       CLEAR     60  36  40 NW20G32   29.78R
CLAXTON        FAIR      62  36  37 W20       29.80R

...CSRA...CENTRAL AND FAR SOUTHEAST GEORGIA...

CITY           SKY/WX    TMP DP  RH WIND       PRES   REMARKS
THOMSON        SUNNY     54  30  39 N21       29.86R
AUGUSTA-BUSH   SUNNY     59  30  33 NW28G35   29.78R
AUGUSTA-DANIEL SUNNY     57  30  35 W13G33    29.79R
SWAINSBORO     FAIR      59  34  38 W14G23    29.83R
VIDALIA        SUNNY     61  34  36 NW10G24   29.83S
EASTMAN        FAIR      61  13  15 NW15G22   29.90R
HAZLEHURST     FAIR      62  15  16 NW10G22   29.85R
ALMA           SUNNY     62  34  35 W17G25    29.84R
WAYCROSS       SUNNY     63  32  31 NW17G26   29.84S HAZE
JESUP          NOT AVBL
BAXLEY         FAIR      59  34  38 NW18G25   29.83S
BRUNSWICK      SUNNY     63  37  39 W13G28    29.80S
SAINT SIMONS   NOT AVBL

$$

SCZ027-028-034-036>038-045-046-048>050-GAZ119-141-122100-
...LAKE AND SUPPLEMENTAL COASTAL OBSERVATIONS...

STATION/POSITION TIME  TEMP    WIND        PRES    WAVE   SWELL
                       AIR SEA DIR/SP/G            HT/PER HT/PER/DIR
                 (UTC) (F)     (DEG/KT/KT) (MB)    (FT/S) (FT/S/D)
WINYAH BAY       1845   60     260/ 10     1004.0
LAKE MURRAY      1920   56     310/  6/ 14 1005.8R
ACE BASIN NERRS  1845   60     250/  7     1006.0
FORT PULASKI     1948   60 55  290/ 25/ 30 1007.5S
SAPELO ISLAND    NOT AVBL

$$

ANZ835-935-AMZ111-154-330-350-352-354-370-450-454-472-122100-
...C-MAN AND BUOY OBSERVATIONS...

STATION/POSITION TIME  TEMP    WIND        PRES    WAVE   SWELL
                       AIR SEA DIR/SP/G            HT/PER HT/PER/DIR
                 (UTC) (F)     (DEG/KT/KT) (MB)    (FT/S) (FT/S/D)
BUOY 41004       1950   62 75  250/ 25/ 31 1004.0F   8/ 7   2/ 90/12
BUOY 41008       1950   61 62  270/ 19/ 25 1007.5F   3/ 5
FOLLY BEACH CMAN 1900   61     250/ 10/ 14 1005.6F
CAPERS NEARSHORE 1908   54 56  230/ 17/ 23 1003.8F
FRIPP NEARSHORE  1908   57 58  250/ 17/ 27 1006.7R


STATION/POSITION TIME  TEMP    WIND        PRES    WAVE   SWELL
                       AIR SEA DIR/SP/G            HT/PER HT/PER/DIR
                 (UTC) (F)     (DEG/KT/KT) (MB)    (FT/S) (FT/S/D)
5E ST. MARYS GA  1930      62                N/A     3/ 3
FRYING PAN BUOY  1950   65 66  220/ 25/ 31 1001.5F   9/ 6
BUOY 41025       1950   66 74  230/ 29/ 35 1000.1F  11/ 7
CAPE LOOKOUT NC  1900          230/ 14/ 19 1001.6F
BUOY 41002       1950   70 75  220/ 27/ 33 1005.7F   8/ 7   2/ 70/11
BUOY 41010       NOT AVBL
ST AUGUSTINE FL  2000   71 62  260/ 17/ 20 1009.3F


$$




USA.gov is the U.S. government's official web portal to all federal, state and local government web resources and services.